Regional Weather Roundup
Issued by NWS Cleveland, OH

Home | Current Version | Previous Version | Text Only | Print | Product List | Glossary Off
Versions: 1 2 3 4 5 6 7 8 9 10 11 12 13 14 15 16 17 18 19 20 21 22 23 24 25 26 27 28 29 30 31 32 33 34 35 36 37 38 39 40 41 42 43 44 45 46 47 48 49 50

642
ASUS41 KCLE 221310
RWRCLE
OHIO REGIONAL WEATHER ROUNDUP
NATIONAL WEATHER SERVICE CLEVELAND, OH
800 AM EST WED FEB 22 2017

NOTE: "FAIR" INDICATES FEW OR NO CLOUDS BELOW 12,000 FEET WITH NO
SIGNIFICANT WEATHER AND/OR OBSTRUCTIONS TO VISIBILITY.

OHZ001>008-015>018-024>027-034-035-043-044-221400-
   NORTHWEST OHIO

CITY           SKY/WX    TMP DP  RH WIND       PRES   REMARKS
DEFIANCE       CLOUDY    51  49  92 SW3       29.89S FOG
FINDLAY        CLOUDY    54  50  86 S9        29.90S FOG
TOLEDO EXPRESS CLOUDY    53  53 100 SW5       29.88F FOG
TOLEDO EXEC    FAIR      53  52  96 SW9       29.89F FOG
LIMA           CLOUDY    54  54 100 S8        29.91S FOG
$$

OHZ009>014-019>023-028>033-038-089-221400-
   NORTHEAST OHIO

CITY           SKY/WX    TMP DP  RH WIND       PRES   REMARKS
CLE-HOPKINS    CLOUDY    57  51  80 S8        29.94R
CLE-LAKEFRONT  CLOUDY    56  50  80 SW9       29.91R
CUY CO. ARPT   CLOUDY    59  54  82 S8        29.92S
LORAIN-ELYRIA  CLOUDY    54  50  86 SW9       29.92R
ASHTABULA      CLOUDY    52  48  86 S7        29.93R
AKRON-CANTON   LGT RAIN  53  49  86 S6        29.94R FOG
WOOSTER        LGT RAIN  52  50  93 SW6       29.95R FOG
MANSFIELD      CLOUDY    54  53  97 S6        29.94R FOG
YOUNGSTOWN     CLOUDY    54  48  80 S7        29.95R
$$

OHZ042-051>053-060>062-070>072-077>081-221400-
  SOUTHWEST OHIO

CITY           SKY/WX    TMP DP  RH WIND       PRES   REMARKS
CINC-COVINGTON CLOUDY    56  55  97 S6        29.93R FOG
CINC-LUNKEN    LGT RAIN  54  54 100 CALM      29.95R FOG
HAMILTON       CLOUDY    56  56 100 CALM      29.94S FOG
DAYTON         CLOUDY    55  54  96 S7        29.94R FOG
WRIGHT-PAT AFB DRIZZLE   55  55 100 S5        29.93S
DAYTON GENERAL CLOUDY    55  54  96 S8        29.93R FOG
WILMINGTON     LGT RAIN  54  54 100 S5        29.94R FOG
$$

OHZ036-037-039>041-045>050-054>059-063>069-073>076-082>088-221400-
  CENTRAL AND SOUTHEAST OHIO

CITY           SKY/WX    TMP DP  RH WIND       PRES   REMARKS
COLUMBUS       CLOUDY    55  54  96 S5        29.95R FOG
OSU AIRPORT    LGT RAIN  54  54 100 S3        29.94S FOG
BOLTON FIELD   FOG       52  52 100 S5        29.96R VSB 3/4
RICKENBACK AFB DRZL/FOG  52  52 100 S5        29.95R VSB 3/4
NEWARK         CLOUDY    53  51  93 CALM      29.95R FOG
MARION         CLOUDY    54  51  90 S6        29.94R FOG
LANCASTER      CLOUDY    56  54  93 S3        29.96S FOG
ZANESVILLE     CLOUDY    53  50  89 S5        29.96R
NEW PHILLY     NOT AVBL
$$




USA.gov is the U.S. government's official web portal to all federal, state and local government web resources and services.